Notices

What's New in latest Release from April 7th, 2021:

- Updated Glossary, including Speed of Maximum Gust, and Total Hourly Precipitation

- Updated national and regional climate services offices contacts and prices information

- Addition of station inventory lists for 1981-2010, 1971-2000, and 1961-1990 Normals.

If you haven't already, please take our survey and provide feedback about our website: https://eccc.sondage-survey.ca/f/LanguageSelection.aspx?s=442ca660-fcf1-47c0-95a9-59707d6fd709

Hourly Data Report for August 31, 2020

TORONTO CITY
ONTARIO
Current Station Operator: ECCC - MSC

43°40'00.000" N
79°24'00.000" W
112.50 m
6158355
71508
XTO

Download Data

Hourly Data (August 2020)
Hourly Data Report for August 31, 2020
TIME
LST
Temp Definition
°C
Dew Point Definition
°C
Rel Hum Definition
%
Precip. Amount Definition
mm

Wind Dir Definition
10's deg

Wind Spd Definition
km/h
Visibility Definition
km
Stn Press Definition
kPa
Hmdx Definition


Wind Chill Definition


Weather Definition


00:00 17.6 9.7 60 0.0       100.19     LegendNANA
01:00 17.2 10.6 65 0.0       100.19     LegendNANA
02:00 17.7 10.9 64 0.0       100.22     LegendNANA
03:00 17.5 10.3 63 0.0       100.25     LegendNANA
04:00 16.6 10.9 69 0.0       100.22     LegendNANA
05:00 15.9 11.4 75 0.0       100.28     LegendNANA
06:00 16.0 12.0 77 0.0       100.31     LegendNANA
07:00 17.7 13.2 75 0.0       100.29     LegendNANA
08:00 19.6 11.4 59 0.0       100.30     LegendNANA
09:00 20.8 10.0 50 0.0       100.33     LegendNANA
10:00 21.0 10.0 49 0.0       100.26     LegendNANA
11:00 22.2 10.9 49 0.0       100.26     LegendNANA
12:00 22.8 11.4 49 0.0       100.20 25   LegendNANA
13:00 22.5 10.9 48 0.0       100.16     LegendNANA
14:00 22.6 11.2 49 0.0       100.05     LegendNANA
15:00 21.7 11.9 54 0.0       100.04     LegendNANA
16:00 21.3 13.5 61 0.0       99.93     LegendNANA
17:00 21.2 14.4 65 0.0       99.94 25   LegendNANA
18:00 20.9 14.8 68 0.0       99.94 25   LegendNANA
19:00 20.6 15.3 71 0.0       99.87 25   LegendNANA
20:00 21.0 16.2 74 0.0       99.89 26   LegendNANA
21:00 22.3 16.2 68 0.0       99.90 27   LegendNANA
22:00 21.2 16.1 73 0.0       99.94 26   LegendNANA
23:00 20.9 16.4 75 0.0       99.98 26   LegendNANA

Notes on Data Quality.

Legend

  • E = Estimated
  • M = Missing
  • NA = Not Available*
  • [empty] = Indicates an unobserved value
Date modified: